| time (UTC) | temp F | wind direction | speed knots | gust knots | rain 1hr in | rain 24hr in | rain mn in | humidity % | barometer mb |
| 20260510225503 | 78 | 157 | 1.7 | 4.3 | 0.00 | 0.00 | 0.00 | 63 | 1017.0 |
| 20260510225003 | 78 | 3 | 0.9 | 4.3 | 0.00 | 0.00 | 0.00 | 64 | 1017.0 |
| 20260510224504 | 79 | 33 | 0.9 | 4.3 | 0.00 | 0.00 | 0.00 | 62 | 1017.0 |
| 20260510224003 | 79 | 50 | 0.9 | 5.2 | 0.00 | 0.00 | 0.00 | 62 | 1017.0 |
| 20260510223504 | 80 | 162 | 1.7 | 5.2 | 0.00 | 0.00 | 0.00 | 62 | 1017.1 |
| 20260510223004 | 80 | 106 | 1.7 | 5.2 | 0.00 | 0.00 | 0.00 | 61 | 1017.1 |
| 20260510222504 | 80 | 93 | 1.7 | 5.2 | 0.00 | 0.00 | 0.00 | 58 | 1017.1 |
| 20260510222004 | 79 | 132 | 0.9 | 4.3 | 0.00 | 0.00 | 0.00 | 60 | 1017.1 |
| 20260510221503 | 78 | 101 | 0.9 | 5.2 | 0.00 | 0.00 | 0.00 | 64 | 1017.1 |
| 20260510221004 | 78 | 98 | 2.6 | 5.2 | 0.00 | 0.00 | 0.00 | 64 | 1017.1 |
| 20260510220504 | 79 | 119 | 0.9 | 2.6 | 0.00 | 0.00 | 0.00 | 62 | 1017.2 |
| 20260510220004 | 79 | 171 | 0.0 | 2.6 | 0.00 | 0.00 | 0.00 | 61 | 1017.2 |
| 20260510215504 | 79 | 117 | 0.9 | 4.3 | 0.00 | 0.00 | 0.00 | 63 | 1017.1 |
| 20260510215004 | 79 | 64 | 1.7 | 4.3 | 0.00 | 0.00 | 0.00 | 61 | 1017.1 |
| 20260510214504 | 79 | 52 | 1.7 | 4.3 | 0.00 | 0.00 | 0.00 | 61 | 1017.1 |
| 20260510214004 | 79 | 97 | 1.7 | 4.3 | 0.00 | 0.00 | 0.00 | 63 | 1017.1 |
| 20260510213503 | 80 | 108 | 1.7 | 2.6 | 0.00 | 0.00 | 0.00 | 60 | 1017.1 |
| 20260510213004 | 81 | 81 | 1.7 | 7.0 | 0.00 | 0.00 | 0.00 | 57 | 1017.1 |
| 20260510212503 | 81 | 101 | 1.7 | 7.0 | 0.00 | 0.00 | 0.00 | 56 | 1017.1 |
| 20260510212004 | 80 | 56 | 1.7 | 7.0 | 0.00 | 0.00 | 0.00 | 57 | 1017.1 |
| 20260510211004 | 82 | 251 | 2.6 | 7.8 | 0.00 | 0.00 | 0.00 | 56 | 1017.0 |
| 20260510210504 | 83 | 295 | 3.5 | 7.8 | 0.00 | 0.00 | 0.00 | 55 | 1017.0 |
| 20260510210004 | 83 | 267 | 3.5 | 7.8 | 0.00 | 0.00 | 0.00 | 52 | 1017.0 |
| 20260510205504 | 83 | 272 | 2.6 | 6.1 | 0.00 | 0.00 | 0.00 | 53 | 1017.0 |
| 20260510205004 | 82 | 169 | 1.7 | 5.2 | 0.00 | 0.00 | 0.00 | 55 | 1017.0 |
| 20260510204503 | 82 | 256 | 2.6 | 5.2 | 0.00 | 0.00 | 0.00 | 55 | 1017.0 |
| 20260510204003 | 81 | 268 | 1.7 | 5.2 | 0.00 | 0.00 | 0.00 | 55 | 1017.1 |
| 20260510203504 | 80 | 13 | 1.7 | 5.2 | 0.00 | 0.00 | 0.00 | 57 | 1017.2 |
| 20260510203004 | 78 | 150 | 0.9 | 2.6 | 0.00 | 0.00 | 0.00 | 61 | 1017.2 |
| 20260510202504 | 77 | 86 | 0.9 | 2.6 | 0.00 | 0.00 | 0.00 | 63 | 1017.3 |
| 20260510202004 | 77 | 94 | 0.0 | 4.3 | 0.00 | 0.00 | 0.00 | 65 | 1017.3 |
| 20260510201504 | 76 | 325 | 0.9 | 4.3 | 0.00 | 0.00 | 0.00 | 66 | 1017.3 |
| 20260510201004 | 77 | 269 | 0.9 | 4.3 | 0.00 | 0.00 | 0.00 | 67 | 1017.3 |
| 20260510200504 | 77 | 86 | 1.7 | 4.3 | 0.00 | 0.00 | 0.00 | 66 | 1017.3 |
| 20260510200004 | 78 | 54 | 0.9 | 4.3 | 0.00 | 0.00 | 0.00 | 66 | 1017.3 |
| 20260510195503 | 78 | 69 | 0.9 | 6.1 | 0.00 | 0.00 | 0.00 | 65 | 1017.4 |
| 20260510195004 | 79 | 312 | 2.6 | 6.1 | 0.00 | 0.00 | 0.00 | 63 | 1017.4 |
| 20260510194503 | 79 | 118 | 0.9 | 4.3 | 0.00 | 0.00 | 0.00 | 61 | 1017.4 |
| 20260510194004 | 78 | 291 | 0.9 | 4.3 | 0.00 | 0.00 | 0.00 | 62 | 1017.4 |
| 20260510193504 | 78 | 165 | 1.7 | 5.2 | 0.00 | 0.00 | 0.00 | 63 | 1017.4 |
| 20260510193004 | 78 | 107 | 1.7 | 5.2 | 0.00 | 0.00 | 0.00 | 63 | 1017.4 |
| 20260510192504 | 78 | 292 | 2.6 | 5.2 | 0.00 | 0.00 | 0.00 | 64 | 1017.4 |
| 20260510192004 | 78 | 280 | 1.7 | 5.2 | 0.00 | 0.00 | 0.00 | 63 | 1017.4 |
| 20260510191504 | 79 | 106 | 0.9 | 5.2 | 0.00 | 0.00 | 0.00 | 61 | 1017.4 |
| 20260510191004 | 78 | 281 | 1.7 | 4.3 | 0.00 | 0.00 | 0.00 | 60 | 1017.4 |
| 20260510190504 | 77 | 121 | 1.7 | 4.3 | 0.00 | 0.00 | 0.00 | 64 | 1017.5 |
| 20260510190004 | 77 | 135 | 1.7 | 5.2 | 0.00 | 0.00 | 0.00 | 63 | 1017.5 |
| 20260510185503 | 78 | 75 | 2.6 | 5.2 | 0.00 | 0.00 | 0.00 | 65 | 1017.6 |
| 20260510185004 | 78 | 86 | 0.9 | 5.2 | 0.00 | 0.00 | 0.00 | 62 | 1017.6 |
| 20260510184504 | 78 | 94 | 0.9 | 6.1 | 0.00 | 0.00 | 0.00 | 62 | 1017.6 |
| 20260510184004 | 79 | 117 | 2.6 | 6.1 | 0.00 | 0.00 | 0.00 | 63 | 1017.6 |
| 20260510183504 | 79 | 173 | 1.7 | 6.1 | 0.00 | 0.00 | 0.00 | 61 | 1017.6 |
| 20260510183004 | 77 | 268 | 0.9 | 6.1 | 0.00 | 0.00 | 0.00 | 63 | 1017.6 |
| 20260510182504 | 77 | 91 | 1.7 | 6.1 | 0.00 | 0.00 | 0.00 | 64 | 1017.6 |
| 20260510182004 | 77 | 270 | 2.6 | 6.1 | 0.00 | 0.00 | 0.00 | 63 | 1017.7 |
| 20260510181504 | 77 | 135 | 2.6 | 7.0 | 0.00 | 0.00 | 0.00 | 64 | 1017.6 |
| 20260510181004 | 78 | 93 | 2.6 | 7.0 | 0.00 | 0.00 | 0.00 | 64 | 1017.7 |
| 20260510180504 | 78 | 207 | 4.3 | 7.8 | 0.00 | 0.00 | 0.00 | 64 | 1017.7 |
| 20260510180004 | 77 | 119 | 1.7 | 7.8 | 0.00 | 0.00 | 0.00 | 65 | 1017.8 |
| 20260510175504 | 77 | 215 | 1.7 | 4.3 | 0.00 | 0.00 | 0.00 | 66 | 1017.8 |
| 20260510175004 | 77 | 101 | 1.7 | 7.0 | 0.00 | 0.00 | 0.00 | 67 | 1017.8 |
| 20260510174504 | 77 | 134 | 1.7 | 7.0 | 0.00 | 0.00 | 0.00 | 67 | 1017.9 |
| 20260510174004 | 76 | 143 | 1.7 | 7.0 | 0.00 | 0.00 | 0.00 | 67 | 1018.0 |
| 20260510173504 | 76 | 280 | 3.5 | 6.1 | 0.00 | 0.00 | 0.00 | 65 | 1018.0 |
| 20260510173004 | 76 | 264 | 2.6 | 6.1 | 0.00 | 0.00 | 0.00 | 66 | 1018.1 |
| 20260510172503 | 75 | 234 | 2.6 | 5.2 | 0.00 | 0.00 | 0.00 | 67 | 1018.1 |
| 20260510172004 | 75 | 265 | 2.6 | 7.0 | 0.00 | 0.00 | 0.00 | 69 | 1018.2 |
| 20260510171504 | 75 | 261 | 3.5 | 7.0 | 0.00 | 0.00 | 0.00 | 72 | 1018.2 |
| 20260510171004 | 75 | 262 | 1.7 | 5.2 | 0.00 | 0.00 | 0.00 | 70 | 1018.2 |
| 20260510170504 | 75 | 271 | 2.6 | 5.2 | 0.00 | 0.00 | 0.00 | 71 | 1018.2 |
| 20260510170004 | 76 | 264 | 2.6 | 5.2 | 0.00 | 0.00 | 0.00 | 71 | 1018.2 |
| 20260510165504 | 76 | 285 | 1.7 | 4.3 | 0.00 | 0.00 | 0.00 | 66 | 1018.3 |
| 20260510165004 | 76 | 90 | 1.7 | 5.2 | 0.00 | 0.00 | 0.00 | 69 | 1018.2 |
| 20260510164004 | 74 | 86 | 2.6 | 5.2 | 0.00 | 0.00 | 0.00 | 72 | 1018.3 |
| 20260510163504 | 74 | 272 | 2.6 | 4.3 | 0.00 | 0.00 | 0.00 | 70 | 1018.3 |
| 20260510163004 | 75 | 102 | 1.7 | 4.3 | 0.00 | 0.00 | 0.00 | 70 | 1018.3 |
| 20260510162503 | 74 | 104 | 0.9 | 5.2 | 0.00 | 0.00 | 0.00 | 74 | 1018.3 |
| 20260510162004 | 75 | 282 | 0.9 | 5.2 | 0.00 | 0.00 | 0.00 | 70 | 1018.3 |
| 20260510161504 | 74 | 82 | 1.7 | 4.3 | 0.00 | 0.00 | 0.00 | 73 | 1018.3 |
| 20260510161004 | 74 | 271 | 1.7 | 4.3 | 0.00 | 0.00 | 0.00 | 74 | 1018.3 |
| 20260510160503 | 74 | 111 | 1.7 | 4.3 | 0.00 | 0.00 | 0.00 | 73 | 1018.3 |
| 20260510160004 | 73 | 282 | 1.7 | 4.3 | 0.00 | 0.00 | 0.00 | 73 | 1018.3 |
| 20260510155503 | 73 | 316 | 1.7 | 5.2 | 0.00 | 0.00 | 0.00 | 76 | 1018.2 |
| 20260510155003 | 72 | 224 | 1.7 | 5.2 | 0.00 | 0.00 | 0.00 | 76 | 1018.1 |
| 20260510154504 | 71 | 202 | 1.7 | 5.2 | 0.00 | 0.00 | 0.00 | 78 | 1018.1 |
| 20260510154004 | 71 | 265 | 1.7 | 5.2 | 0.00 | 0.00 | 0.00 | 78 | 1018.1 |
| 20260510153503 | 72 | 262 | 0.9 | 2.6 | 0.00 | 0.00 | 0.00 | 76 | 1018.1 |
| 20260510153004 | 72 | 359 | 1.7 | 4.3 | 0.00 | 0.00 | 0.00 | 78 | 1018.1 |
| 20260510152504 | 72 | 292 | 2.6 | 4.3 | 0.00 | 0.00 | 0.00 | 77 | 1018.1 |
| 20260510152004 | 71 | 133 | 0.9 | 4.3 | 0.00 | 0.00 | 0.00 | 77 | 1018.1 |
| 20260510151504 | 71 | 276 | 1.7 | 4.3 | 0.00 | 0.00 | 0.00 | 78 | 1018.1 |
| 20260510151004 | 70 | 248 | 0.9 | 4.3 | 0.00 | 0.00 | 0.00 | 80 | 1018.1 |
| 20260510150504 | 70 | 310 | 1.7 | 4.3 | 0.00 | 0.00 | 0.00 | 79 | 1018.1 |
| 20260510150004 | 70 | 110 | 0.9 | 2.6 | 0.00 | 0.00 | 0.00 | 80 | 1018.2 |
| 20260510145503 | 70 | 133 | 0.9 | 2.6 | 0.00 | 0.00 | 0.00 | 81 | 1018.1 |
| 20260510145004 | 69 | 29 | 0.9 | 2.6 | 0.00 | 0.00 | 0.00 | 82 | 1018.1 |
| 20260510144503 | 69 | 245 | 0.9 | 2.6 | 0.00 | 0.00 | 0.00 | 83 | 1018.1 |
| 20260510144004 | 69 | 268 | 1.7 | 2.6 | 0.00 | 0.00 | 0.00 | 83 | 1018.1 |
| 20260510143504 | 69 | 302 | 0.9 | 2.6 | 0.00 | 0.00 | 0.00 | 83 | 1018.1 |
| 20260510143004 | 68 | 268 | 1.7 | 2.6 | 0.00 | 0.00 | 0.00 | 84 | 1018.1 |
| 20260510142504 | 68 | 86 | 0.9 | 2.6 | 0.00 | 0.00 | 0.00 | 85 | 1018.0 |
| 20260510142003 | 68 | 266 | 1.7 | 2.6 | 0.00 | 0.00 | 0.00 | 85 | 1018.0 |
| 20260510141504 | 67 | 225 | 0.9 | 2.6 | 0.00 | 0.00 | 0.00 | 86 | 1017.9 |
| 20260510141004 | 67 | 281 | 0.9 | 2.6 | 0.00 | 0.00 | 0.00 | 87 | 1017.9 |
| 20260510140504 | 67 | 251 | 0.9 | 2.6 | 0.00 | 0.00 | 0.00 | 86 | 1018.0 |
| 20260510140004 | 67 | 61 | 0.0 | 1.7 | 0.00 | 0.00 | 0.00 | 87 | 1017.9 |
| 20260510135504 | 66 | 125 | 0.9 | 1.7 | 0.00 | 0.00 | 0.00 | 89 | 1017.6 |
| 20260510135004 | 66 | 263 | 0.9 | 1.7 | 0.00 | 0.00 | 0.00 | 90 | 1017.5 |
| 20260510134504 | 66 | 209 | 0.9 | 1.7 | 0.00 | 0.00 | 0.00 | 90 | 1017.6 |
| 20260510134004 | 66 | 268 | 0.0 | 1.7 | 0.00 | 0.00 | 0.00 | 90 | 1017.3 |
| 20260510133503 | 65 | 266 | 0.9 | 1.7 | 0.00 | 0.00 | 0.00 | 90 | 1017.4 |
| 20260510133004 | 65 | 61 | 0.0 | 1.7 | 0.00 | 0.00 | 0.00 | 90 | 1017.2 |
| 20260510132503 | 65 | 61 | 0.9 | 1.7 | 0.00 | 0.00 | 0.00 | 91 | 1017.1 |
| 20260510132003 | 65 | 96 | 0.9 | 4.3 | 0.00 | 0.00 | 0.00 | 92 | 1017.0 |
| 20260510131503 | 65 | 77 | 2.6 | 4.3 | 0.00 | 0.00 | 0.00 | 92 | 1017.0 |
| 20260510131004 | 65 | 70 | 0.9 | 2.6 | 0.00 | 0.00 | 0.00 | 92 | 1016.9 |
| 20260510130503 | 65 | 58 | 1.7 | 2.6 | 0.00 | 0.00 | 0.00 | 91 | 1016.9 |
| 20260510130004 | 65 | 104 | 0.0 | 2.6 | 0.00 | 0.00 | 0.00 | 92 | 1016.6 |
| 20260510125504 | 65 | 88 | 0.0 | 2.6 | 0.00 | 0.00 | 0.00 | 93 | 1016.4 |
| 20260510125004 | 65 | 260 | 1.7 | 2.6 | 0.00 | 0.00 | 0.00 | 93 | 1016.5 |
| 20260510124504 | 65 | 94 | 0.9 | 1.7 | 0.00 | 0.00 | 0.00 | 93 | 1016.4 |
| 20260510124004 | 65 | 347 | 0.0 | 1.7 | 0.00 | 0.00 | 0.00 | 93 | 1016.2 |
| 20260510123503 | 64 | 347 | 0.0 | 1.7 | 0.00 | 0.00 | 0.00 | 93 | 1016.1 |
| 20260510123003 | 64 | 259 | 0.0 | 1.7 | 0.00 | 0.00 | 0.00 | 93 | 1016.1 |
| 20260510122504 | 64 | 69 | 0.0 | 1.7 | 0.00 | 0.00 | 0.00 | 95 | 1015.6 |
| 20260510122003 | 64 | 64 | 0.0 | 0.9 | 0.00 | 0.00 | 0.00 | 96 | 1015.4 |
| 20260510121504 | 64 | 91 | 0.0 | 1.7 | 0.00 | 0.00 | 0.00 | 96 | 1015.2 |
| 20260510121004 | 63 | 92 | 0.9 | 1.7 | 0.00 | 0.00 | 0.00 | 97 | 1014.9 |
| 20260510120504 | 63 | 65 | 0.9 | 1.7 | 0.00 | 0.00 | 0.00 | 97 | 1014.7 |
| 20260510120003 | 63 | 87 | 0.9 | 1.7 | 0.00 | 0.00 | 0.00 | 98 | 1014.2 |
| 20260510115504 | 63 | 112 | 0.9 | 1.7 | 0.00 | 0.00 | 0.00 | 99 | 1013.9 |
| 20260510115003 | 63 | 81 | 0.9 | 1.7 | 0.00 | 0.00 | 0.00 | 99 | 1013.5 |
| 20260510114504 | 63 | 64 | 0.0 | 1.7 | 0.00 | 0.00 | 0.00 | 100 | 1013.4 |
| 20260510114004 | 63 | 81 | 0.9 | 1.7 | 0.00 | 0.00 | 0.00 | 99 | 1013.2 |
| 20260510113504 | 63 | 60 | 0.9 | 1.7 | 0.00 | 0.00 | 0.00 | 99 | 1013.0 |
| 20260510113004 | 63 | 267 | 0.9 | 1.7 | 0.00 | 0.00 | 0.00 | 99 | 1012.9 |
| 20260510112505 | 63 | 341 | 0.9 | 2.6 | 0.00 | 0.00 | 0.00 | 99 | 1012.8 |
| 20260510112003 | 63 | 92 | 0.9 | 2.6 | 0.00 | 0.00 | 0.00 | 99 | 1012.6 |
| 20260510111503 | 63 | 66 | 1.7 | 2.6 | 0.00 | 0.00 | 0.00 | 99 | 1012.5 |
| 20260510111003 | 63 | 72 | 0.9 | 1.7 | 0.00 | 0.00 | 0.00 | 99 | 1012.5 |
| 20260510110504 | 63 | 50 | 0.9 | 1.7 | 0.00 | 0.00 | 0.00 | 99 | 1012.5 |
| 20260510110004 | 63 | 64 | 0.0 | 2.6 | 0.00 | 0.00 | 0.00 | 99 | 1012.4 |
| 20260510105504 | 63 | 70 | 0.9 | 2.6 | 0.00 | 0.00 | 0.00 | 99 | 1012.5 |
| 20260510105003 | 63 | 103 | 0.9 | 1.7 | 0.00 | 0.00 | 0.00 | 99 | 1012.5 |
| 20260510104504 | 63 | 269 | 0.9 | 1.7 | 0.00 | 0.00 | 0.00 | 99 | 1012.5 |
| 20260510104004 | 63 | 70 | 0.9 | 1.7 | 0.00 | 0.00 | 0.00 | 99 | 1012.4 |
| 20260510103504 | 63 | 80 | 1.7 | 1.7 | 0.00 | 0.00 | 0.00 | 99 | 1012.3 |
| 20260510103003 | 63 | 118 | 0.9 | 1.7 | 0.00 | 0.00 | 0.00 | 99 | 1012.3 |
| 20260510102504 | 63 | 283 | 1.7 | 1.7 | 0.00 | 0.00 | 0.00 | 99 | 1012.3 |
| 20260510102009 | 63 | 259 | 0.9 | 2.6 | 0.00 | 0.00 | 0.00 | 99 | 1012.3 |
| 20260510102004 | 63 | 260 | 0.9 | 2.6 | 0.00 | 0.00 | 0.00 | 99 | 1012.3 |
| 20260510101504 | 63 | 38 | 0.9 | 2.6 | 0.00 | 0.00 | 0.00 | 99 | 1012.2 |
| 20260510101003 | 63 | 71 | 1.7 | 2.6 | 0.00 | 0.00 | 0.00 | 99 | 1012.2 |
| 20260510100504 | 63 | 82 | 1.7 | 2.6 | 0.00 | 0.00 | 0.00 | 99 | 1012.1 |
| 20260510100004 | 63 | 131 | 0.0 | 2.6 | 0.00 | 0.00 | 0.00 | 99 | 1012.0 |
| 20260510095504 | 63 | 327 | 0.9 | 2.6 | 0.00 | 0.00 | 0.00 | 99 | 1012.0 |
| 20260510095004 | 63 | 328 | 0.9 | 2.6 | 0.00 | 0.00 | 0.00 | 99 | 1011.9 |
| 20260510094503 | 63 | 71 | 1.7 | 2.6 | 0.00 | 0.00 | 0.00 | 99 | 1011.9 |
| 20260510094003 | 63 | 58 | 0.9 | 2.6 | 0.00 | 0.00 | 0.00 | 99 | 1011.8 |
| 20260510093504 | 63 | 101 | 0.9 | 4.3 | 0.00 | 0.00 | 0.00 | 99 | 1011.8 |
| 20260510093003 | 63 | 3 | 0.9 | 4.3 | 0.00 | 0.00 | 0.00 | 99 | 1011.7 |
| 20260510092506 | 63 | 277 | 0.9 | 4.3 | 0.00 | 0.00 | 0.00 | 99 | 1011.7 |
| 20260510092004 | 63 | 288 | 1.7 | 4.3 | 0.00 | 0.00 | 0.00 | 99 | 1011.7 |
| 20260510091503 | 63 | 53 | 0.9 | 2.6 | 0.00 | 0.00 | 0.00 | 99 | 1011.7 |
| 20260510091003 | 63 | 326 | 0.9 | 4.3 | 0.00 | 0.00 | 0.00 | 99 | 1011.8 |
| 20260510090504 | 63 | 267 | 1.7 | 4.3 | 0.00 | 0.00 | 0.00 | 99 | 1011.8 |
| 20260510090003 | 63 | 292 | 1.7 | 4.3 | 0.00 | 0.00 | 0.00 | 99 | 1011.8 |
| 20260510085503 | 63 | 320 | 1.7 | 2.6 | 0.00 | 0.00 | 0.00 | 99 | 1011.8 |
| 20260510085004 | 63 | 306 | 0.9 | 2.6 | 0.00 | 0.00 | 0.00 | 99 | 1011.7 |
| 20260510084503 | 63 | 288 | 0.9 | 1.7 | 0.00 | 0.00 | 0.00 | 99 | 1011.7 |
| 20260510084004 | 63 | 331 | 0.9 | 1.7 | 0.00 | 0.00 | 0.00 | 99 | 1011.6 |
| 20260510083503 | 63 | 301 | 0.9 | 1.7 | 0.00 | 0.00 | 0.00 | 99 | 1011.7 |
| 20260510083022 | 63 | 3 | 0.0 | 2.6 | 0.00 | 0.00 | 0.00 | 99 | 1011.7 |
| 20260510083004 | 63 | 4 | 0.0 | 2.6 | 0.00 | 0.00 | 0.00 | 100 | 1011.7 |
| 20260510082509 | 63 | 300 | 0.9 | 2.6 | 0.00 | 0.00 | 0.00 | 100 | 1011.7 |
| 20260510082504 | 63 | 301 | 0.9 | 2.6 | 0.00 | 0.00 | 0.00 | 100 | 1011.7 |
| 20260510082004 | 63 | 325 | 0.9 | 2.6 | 0.00 | 0.00 | 0.00 | 100 | 1011.6 |
| 20260510081504 | 63 | 236 | 0.9 | 2.6 | 0.00 | 0.00 | 0.00 | 100 | 1011.5 |
| 20260510081004 | 64 | 262 | 1.7 | 2.6 | 0.00 | 0.00 | 0.00 | 100 | 1011.5 |
| 20260510080504 | 64 | 232 | 0.9 | 2.6 | 0.00 | 0.00 | 0.00 | 100 | 1011.5 |
| 20260510080003 | 64 | 264 | 0.9 | 2.6 | 0.00 | 0.00 | 0.00 | 100 | 1011.5 |
| 20260510075504 | 64 | 147 | 0.9 | 2.6 | 0.00 | 0.00 | 0.00 | 100 | 1011.5 |
| 20260510075004 | 64 | 69 | 0.9 | 2.6 | 0.00 | 0.00 | 0.00 | 100 | 1011.4 |
| 20260510074503 | 64 | 253 | 0.9 | 5.2 | 0.00 | 0.00 | 0.00 | 100 | 1011.4 |
| 20260510074003 | 64 | 268 | 1.7 | 5.2 | 0.00 | 0.00 | 0.00 | 100 | 1011.4 |
| 20260510073504 | 64 | 278 | 1.7 | 4.3 | 0.00 | 0.00 | 0.00 | 100 | 1011.4 |
| 20260510073008 | 64 | 263 | 0.9 | 4.3 | 0.00 | 0.00 | 0.00 | 100 | 1011.5 |
| 20260510072504 | 64 | 291 | 1.7 | 2.6 | 0.00 | 0.00 | 0.00 | 100 | 1011.5 |
| 20260510072004 | 64 | 268 | 1.7 | 2.6 | 0.00 | 0.00 | 0.00 | 100 | 1011.5 |
| 20260510071504 | 64 | 280 | 0.9 | 2.6 | 0.00 | 0.00 | 0.00 | 100 | 1011.7 |
| 20260510071004 | 64 | 329 | 0.9 | 2.6 | 0.00 | 0.00 | 0.00 | 100 | 1011.7 |
| 20260510070503 | 63 | 318 | 0.9 | 2.6 | 0.00 | 0.00 | 0.00 | 100 | 1011.8 |
| 20260510070004 | 63 | 313 | 1.7 | 2.6 | 0.00 | 0.00 | 0.00 | 99 | 1011.9 |
| 20260510065003 | 64 | 297 | 0.9 | 1.7 | 0.00 | 0.00 | 0.00 | 99 | 1012.1 |
| 20260510064504 | 64 | 300 | 0.9 | 2.6 | 0.00 | 0.00 | 0.00 | 99 | 1012.1 |
| 20260510064004 | 64 | 12 | 0.9 | 2.6 | 0.00 | 0.00 | 0.00 | 99 | 1012.1 |
| 20260510063503 | 64 | 262 | 1.7 | 2.6 | 0.00 | 0.00 | 0.00 | 98 | 1012.1 |
| 20260510063003 | 64 | 262 | 0.9 | 2.6 | 0.00 | 0.00 | 0.00 | 98 | 1012.1 |
| 20260510062504 | 64 | 29 | 0.9 | 2.6 | 0.00 | 0.00 | 0.00 | 98 | 1012.0 |
| 20260510062004 | 64 | 317 | 0.9 | 2.6 | 0.00 | 0.00 | 0.00 | 99 | 1012.0 |
| 20260510061503 | 64 | 2 | 0.9 | 4.3 | 0.00 | 0.00 | 0.00 | 99 | 1012.0 |
| 20260510061004 | 64 | 247 | 0.9 | 4.3 | 0.00 | 0.00 | 0.00 | 99 | 1012.0 |
| 20260510060505 | 64 | 285 | 2.6 | 4.3 | 0.00 | 0.00 | 0.00 | 99 | 1012.1 |
| 20260510060004 | 63 | 282 | 1.7 | 2.6 | 0.00 | 0.00 | 0.00 | 99 | 1012.2 |
| 20260510055503 | 63 | 300 | 0.9 | 1.7 | 0.00 | 0.00 | 0.00 | 99 | 1012.3 |
| 20260510055004 | 63 | 282 | 0.9 | 1.7 | 0.00 | 0.00 | 0.00 | 99 | 1012.3 |
| 20260510054504 | 63 | 46 | 0.9 | 1.7 | 0.00 | 0.00 | 0.00 | 99 | 1012.3 |
| 20260510054004 | 63 | 80 | 0.9 | 1.7 | 0.00 | 0.00 | 0.00 | 99 | 1012.4 |
| 20260510053504 | 63 | 333 | 0.0 | 0.9 | 0.00 | 0.00 | 0.00 | 98 | 1012.5 |
| 20260510053004 | 63 | 78 | 0.0 | 1.7 | 0.00 | 0.00 | 0.00 | 98 | 1012.5 |
| 20260510052505 | 63 | 331 | 0.9 | 1.7 | 0.00 | 0.00 | 0.00 | 99 | 1012.4 |
| 20260510052503 | 63 | 319 | 0.9 | 1.7 | 0.00 | 0.00 | 0.00 | 99 | 1012.4 |
| 20260510052004 | 63 | 8 | 0.9 | 1.7 | 0.00 | 0.00 | 0.00 | 99 | 1012.5 |
| 20260510051504 | 63 | 321 | 0.0 | 1.7 | 0.00 | 0.00 | 0.00 | 98 | 1012.5 |
| 20260510051003 | 63 | 71 | 0.0 | 1.7 | 0.00 | 0.00 | 0.00 | 98 | 1012.5 |
| 20260510050503 | 63 | 64 | 0.0 | 1.7 | 0.00 | 0.00 | 0.00 | 98 | 1012.5 |
| 20260510050004 | 64 | 73 | 0.0 | 1.7 | 0.00 | 0.00 | 0.00 | 98 | 1012.5 |
| 20260510045504 | 64 | 352 | 0.9 | 1.7 | 0.00 | 0.00 | 0.00 | 98 | 1012.5 |
| 20260510045003 | 64 | 36 | 0.9 | 1.7 | 0.00 | 0.00 | 0.00 | 98 | 1012.5 |
| 20260510044503 | 64 | 65 | 0.0 | 1.7 | 0.00 | 0.00 | 0.00 | 98 | 1012.5 |
| 20260510044005 | 64 | 71 | 0.9 | 1.7 | 0.00 | 0.00 | 0.00 | 98 | 1012.5 |
| 20260510043503 | 64 | 16 | 0.9 | 1.7 | 0.00 | 0.00 | 0.00 | 98 | 1012.5 |
| 20260510043003 | 64 | 305 | 0.9 | 1.7 | 0.00 | 0.00 | 0.00 | 98 | 1012.6 |
| 20260510042504 | 64 | 323 | 0.9 | 1.7 | 0.00 | 0.00 | 0.00 | 98 | 1012.7 |
| 20260510042005 | 64 | 6 | 0.9 | 1.7 | 0.00 | 0.00 | 0.00 | 98 | 1012.8 |
| 20260510042003 | 64 | 10 | 0.9 | 1.7 | 0.00 | 0.00 | 0.00 | 98 | 1012.8 |
| 20260510041504 | 64 | 100 | 0.0 | 1.7 | 0.00 | 0.00 | 0.00 | 97 | 1012.9 |
| 20260510041004 | 64 | 311 | 0.9 | 0.9 | 0.00 | 0.00 | 0.00 | 97 | 1012.9 |
| 20260510040504 | 64 | 278 | 0.0 | 1.7 | 0.00 | 0.00 | 0.00 | 97 | 1012.9 |
| 20260510040004 | 65 | 285 | 0.9 | 1.7 | 0.00 | 0.00 | 0.00 | 97 | 1012.9 |
| 20260510035504 | 65 | 350 | 0.9 | 1.7 | 0.00 | 0.00 | 0.00 | 97 | 1013.1 |
| 20260510035003 | 65 | 81 | 0.0 | 1.7 | 0.00 | 0.00 | 0.00 | 96 | 1013.1 |
| 20260510034504 | 65 | 50 | 0.9 | 1.7 | 0.00 | 0.00 | 0.00 | 96 | 1013.2 |
| 20260510034006 | 65 | 105 | 0.9 | 1.7 | 0.00 | 0.00 | 0.00 | 97 | 1013.2 |
| 20260510034003 | 65 | 116 | 0.9 | 1.7 | 0.00 | 0.00 | 0.00 | 97 | 1013.2 |
| 20260510033503 | 65 | 121 | 0.9 | 1.7 | 0.00 | 0.00 | 0.00 | 96 | 1013.3 |
| 20260510033003 | 65 | 59 | 0.0 | 0.9 | 0.00 | 0.00 | 0.00 | 96 | 1013.4 |
| 20260510032503 | 65 | 66 | 0.0 | 1.7 | 0.00 | 0.00 | 0.00 | 96 | 1013.4 |
| 20260510032003 | 65 | 298 | 0.0 | 1.7 | 0.00 | 0.00 | 0.00 | 95 | 1013.5 |
| 20260510031504 | 65 | 292 | 0.0 | 1.7 | 0.00 | 0.00 | 0.00 | 95 | 1013.5 |
| 20260510031004 | 65 | 340 | 0.9 | 1.7 | 0.00 | 0.00 | 0.00 | 95 | 1013.6 |
| 20260510030503 | 66 | 53 | 0.9 | 1.7 | 0.00 | 0.00 | 0.00 | 94 | 1013.6 |
| 20260510030004 | 66 | 53 | 0.9 | 1.7 | 0.00 | 0.00 | 0.00 | 94 | 1013.6 |
| 20260510025504 | 66 | 319 | 0.0 | 2.6 | 0.00 | 0.00 | 0.00 | 94 | 1013.6 |
| 20260510025004 | 66 | 306 | 0.9 | 2.6 | 0.00 | 0.00 | 0.00 | 94 | 1013.6 |
| 20260510023504 | 66 | 278 | 0.0 | 1.7 | 0.00 | 0.00 | 0.00 | 93 | 1013.7 |
| 20260510023004 | 66 | 74 | 0.0 | 1.7 | 0.00 | 0.00 | 0.00 | 93 | 1013.7 |
| 20260510022504 | 67 | 297 | 0.9 | 2.6 | 0.00 | 0.00 | 0.00 | 93 | 1013.7 |
| 20260510022004 | 67 | 270 | 0.9 | 2.6 | 0.00 | 0.00 | 0.00 | 92 | 1013.7 |
| 20260510021504 | 67 | 266 | 1.7 | 2.6 | 0.00 | 0.00 | 0.00 | 92 | 1013.7 |
| 20260510021004 | 67 | 28 | 0.9 | 2.6 | 0.00 | 0.00 | 0.00 | 92 | 1013.7 |
| 20260510020504 | 67 | 83 | 0.9 | 2.6 | 0.00 | 0.00 | 0.00 | 92 | 1013.6 |
| 20260510020004 | 67 | 271 | 0.9 | 2.6 | 0.00 | 0.00 | 0.00 | 92 | 1013.6 |
| 20260510015503 | 67 | 274 | 0.9 | 1.7 | 0.00 | 0.00 | 0.00 | 92 | 1013.5 |
| 20260510015004 | 67 | 118 | 0.9 | 2.6 | 0.00 | 0.00 | 0.00 | 91 | 1013.6 |
| 20260510014504 | 67 | 285 | 0.9 | 2.6 | 0.00 | 0.00 | 0.00 | 91 | 1013.6 |
| 20260510014004 | 67 | 97 | 0.9 | 2.6 | 0.00 | 0.00 | 0.00 | 91 | 1013.6 |
| 20260510013504 | 67 | 3 | 0.9 | 4.3 | 0.00 | 0.00 | 0.00 | 90 | 1013.5 |
| 20260510013005 | 67 | 110 | 0.9 | 4.3 | 0.00 | 0.00 | 0.00 | 90 | 1013.6 |
| 20260510012504 | 68 | 276 | 0.9 | 4.3 | 0.00 | 0.00 | 0.00 | 90 | 1013.6 |
| 20260510012004 | 68 | 281 | 0.9 | 4.3 | 0.00 | 0.00 | 0.00 | 89 | 1013.6 |
| 20260510011504 | 68 | 131 | 0.9 | 2.6 | 0.00 | 0.00 | 0.00 | 89 | 1013.6 |
| 20260510011004 | 68 | 343 | 0.9 | 2.6 | 0.00 | 0.00 | 0.00 | 88 | 1013.7 |
| 20260510010504 | 68 | 103 | 0.9 | 2.6 | 0.00 | 0.00 | 0.00 | 88 | 1013.6 |
| 20260510010004 | 68 | 357 | 0.9 | 2.6 | 0.00 | 0.00 | 0.00 | 88 | 1013.6 |
| 20260510005504 | 68 | 54 | 0.9 | 2.6 | 0.00 | 0.00 | 0.00 | 87 | 1013.7 |
| 20260510005004 | 69 | 276 | 0.9 | 4.3 | 0.00 | 0.00 | 0.00 | 87 | 1013.7 |
| 20260510004504 | 69 | 47 | 0.9 | 4.3 | 0.00 | 0.00 | 0.00 | 86 | 1013.7 |
| 20260510003504 | 69 | 269 | 0.9 | 2.6 | 0.00 | 0.00 | 0.00 | 87 | 1013.7 |
| 20260510003004 | 69 | 70 | 0.9 | 2.6 | 0.00 | 0.00 | 0.00 | 86 | 1013.7 |
| 20260510002504 | 70 | 82 | 0.9 | 4.3 | 0.00 | 0.00 | 0.00 | 85 | 1013.7 |
| 20260510002004 | 70 | 132 | 0.9 | 4.3 | 0.00 | 0.00 | 0.00 | 85 | 1013.6 |
| 20260510001504 | 70 | 97 | 0.9 | 4.3 | 0.00 | 0.00 | 0.00 | 84 | 1013.8 |
| 20260510001004 | 70 | 113 | 0.9 | 2.6 | 0.00 | 0.00 | 0.00 | 84 | 1013.8 |
| 20260510000504 | 70 | 65 | 0.9 | 2.6 | 0.00 | 0.00 | 0.00 | 83 | 1013.8 |
| 20260510000003 | 71 | 101 | 0.0 | 2.6 | 0.00 | 0.00 | 0.00 | 82 | 1013.8 |
| 20260509235509 | 71 | 99 | 0.9 | 1.7 | 0.00 | 0.00 | 0.00 | 82 | 1013.8 |
| 20260509235504 | 71 | 98 | 0.9 | 1.7 | 0.00 | 0.00 | 0.00 | 82 | 1013.8 |
| 20260509235004 | 71 | 229 | 0.0 | 1.7 | 0.00 | 0.00 | 0.00 | 80 | 1013.8 |
| 20260509234504 | 71 | 87 | 0.9 | 1.7 | 0.00 | 0.00 | 0.00 | 81 | 1013.8 |
| 20260509234004 | 72 | 263 | 0.0 | 1.7 | 0.00 | 0.00 | 0.00 | 80 | 1013.8 |
| 20260509233504 | 72 | 279 | 0.0 | 1.7 | 0.00 | 0.00 | 0.00 | 78 | 1013.9 |
| 20260509233004 | 72 | 183 | 0.9 | 1.7 | 0.00 | 0.00 | 0.00 | 78 | 1013.8 |
| 20260509232503 | 72 | 293 | 0.0 | 2.6 | 0.00 | 0.00 | 0.00 | 78 | 1013.7 |
| 20260509231504 | 73 | 282 | 0.9 | 1.7 | 0.00 | 0.00 | 0.00 | 77 | 1013.8 |
| 20260509231004 | 73 | 357 | 0.9 | 1.7 | 0.00 | 0.00 | 0.00 | 76 | 1013.7 |
| 20260509230504 | 73 | 115 | 0.9 | 1.7 | 0.00 | 0.00 | 0.00 | 76 | 1013.6 |
| 20260509230004 | 73 | 84 | 0.0 | 1.7 | 0.00 | 0.00 | 0.00 | 75 | 1013.6 |